Regional Weather Roundup
Issued by NWS Cleveland, OH

Home | Current Version | Previous Version | Graphics & Text | Print | Product List | Glossary On
Versions: 1 2 3 4 5 6 7 8 9 10 11 12 13 14 15 16 17 18 19 20 21 22 23 24 25 26 27 28 29 30 31 32 33 34 35 36 37 38 39 40 41 42 43 44 45 46 47 48 49 50
000
ASUS41 KCLE 261902
RWRCLE
OHIO REGIONAL WEATHER ROUNDUP
NATIONAL WEATHER SERVICE CLEVELAND, OH
300 PM EDT SUN APR 26 2015

NOTE: "FAIR" INDICATES FEW OR NO CLOUDS BELOW 12,000 FEET WITH NO
SIGNIFICANT WEATHER AND/OR OBSTRUCTIONS TO VISIBILITY.

OHZ001>008-015>018-024>027-034-035-043-044-262000-
   NORTHWEST OHIO

CITY           SKY/WX    TMP DP  RH WIND       PRES   REMARKS
DEFIANCE       MOSUNNY   58  30  34 N8G21     29.91S
FINDLAY        SUNNY     56  31  38 NE12G24   29.88F
TOLEDO EXPRESS PTSUNNY   57  28  33 NE13G18   29.90S
TOLEDO EXEC    SUNNY     56  28  34 VRB6G16   29.91F
LIMA           SUNNY     54  33  45 N13G23    29.88F
$$

OHZ009>014-019>023-028>033-038-089-262000-
   NORTHEAST OHIO

CITY           SKY/WX    TMP DP  RH WIND       PRES   REMARKS
CLE-HOPKINS    SUNNY     50  31  48 N12       29.91R
CLE-LAKEFRONT  SUNNY     44  34  67 W5        29.89S
CUY CO. ARPT   NOT AVBL
LORAIN-ELYRIA  SUNNY     51  32  48 N14G21    29.89S
ASHTABULA      SUNNY     52  28  39 NW10G17   29.86R
AKRON-CANTON   MOSUNNY   59  31  34 NW16      29.81S
WOOSTER        SUNNY     54  31  41 N15G25    29.84R
MANSFIELD      SUNNY     54  30  40 N17G25    29.85R
YOUNGSTOWN     MOSUNNY   55  28  35 N10       29.81S
$$

OHZ042-051>053-060>062-070>072-077>081-262000-
  SOUTHWEST OHIO

CITY           SKY/WX    TMP DP  RH WIND       PRES   REMARKS
CINC-COVINGTON MOSUNNY   59  35  40 NW13      29.85S
CINC-LUNKEN    SUNNY     59  35  40 N6G20     29.86R
HAMILTON       SUNNY     59  36  42 NE13G21   29.87S
DAYTON         MOSUNNY   57  36  45 N15G23    29.87S
WRIGHT-PAT AFB NOT AVBL
DAYTON GENERAL SUNNY     57  36  45 N12G24    29.85S
WILMINGTON     SUNNY     57  33  40 N14G23    29.84S
$$

OHZ036-037-039>041-045>050-054>059-063>069-073>076-082>088-262000-
  CENTRAL AND SOUTHEAST OHIO

CITY           SKY/WX    TMP DP  RH WIND       PRES   REMARKS
COLUMBUS       MOSUNNY   59  33  37 N14G21    29.82S
OSU AIRPORT    SUNNY     57  32  38 N13       29.83S
BOLTON FIELD   NOT AVBL
RICKENBACK AFB SUNNY     58  32  37 N12G18    29.81F
NEWARK         SUNNY     59  30  33 N8        29.81S
MARION         SUNNY     56  31  38 N13G23    29.86S
LANCASTER      SUNNY     60  36  40 N12       29.81S
ZANESVILLE     SUNNY     58  30  34 NE8       29.79F
NEW PHILLY     SUNNY     60  30  32 N13       29.80F
$$


USA.gov is the U.S. government's official web portal to all federal, state and local government web resources and services.